Weather History for Dayton, OH

Change the Weather History Date:

Tuesday, October 30, 2012

  Actual Average Record
Temperature  
Mean Temperature 37 °F 49 °F  
Max Temperature 40 °F 59 °F 81 °F (1927)
Min Temperature 34 °F 40 °F 18 °F (1895)
Degree Days  
Heating Degree Days 28 16  
Month to date heating degree days 365 341  
Since 1 July heating degree days 475 431  
Cooling Degree Days 0 0  
Month to date cooling degree days 9 10  
Year to date cooling degree days 1264 891  
Moisture  
Dew Point 34 °F    
Average Humidity 76    
Maximum Humidity 100    
Minimum Humidity 51    
Precipitation  
Precipitation 0.12 in 0.10 in 0.78 in (1926)
Month to date precipitation 3.74 2.83  
Year to date precipitation 27.96 34.44  
Snow  
Snow 0.70 in 0.00 in 3.70 in (1993)
Month to date snowfall 0.7 0.3  
Since 1 July snowfall 0.7 0.3  
Since 1 September snowfall 0.7 0.3  
Snow Depth 0.00 in    
Sea Level Pressure  
Sea Level Pressure 29.56 in    
Wind  
Wind Speed 20 mph (NW)    
Max Wind Speed 37 mph    
Max Gust Speed 45 mph    
Visibility 4 miles    
Events Rain , Snow    
T = Trace of Precipitation, MM = Missing Value Source: NWS Daily Summary

Daily Weather History Graph

Daily Weather History Graph

Search for Another Location

Airport:

Trip Planner

Search our weather history database for the weather conditions in past years. The results will help you decide how hot, cold, wet, or windy it might be!

Date:

Astronomy

Oct. 30, 2012 Rise Set
Actual Time 8:04 AM EDT 6:36 PM EDT
Civil Twilight 7:36 AM EDT 7:04 PM EDT
Nautical Twilight 7:04 AM EDT 7:36 PM EDT
Astronomical Twilight 6:32 AM EDT 8:07 PM EDT
Moon 7:05 PM EDT (10/30) 8:49 AM EDT (10/30)
Length of Visible Light 11h 28m
Length of Day
10h 32m
Full, 99% of the Moon is Illuminated
Oct 30
Full
Nov 6
Last Quarter
Nov 13
New
Nov 20
First Quarter
Nov 28
Full

Hourly Weather History & Observations

Time (EDT) Temp. Windchill Dew Point Humidity Pressure Visibility Wind Dir Wind Speed Gust Speed Precip Events Conditions
12:56 AM 41.0 °F 29.5 °F 24.1 °F 51% 29.69 in 10.0 mi North 32.2 mph 42.6 mph N/A   Overcast
1:56 AM 37.4 °F 25.4 °F 28.4 °F 70% 29.65 in 10.0 mi NNW 27.6 mph 39.1 mph N/A   Overcast
2:33 AM 35.6 °F 23.7 °F 30.2 °F 81% 29.62 in 4.0 mi NNW 24.2 mph 38.0 mph 0.00 in Snow Light Snow
2:48 AM 35.6 °F 23.4 °F 30.2 °F 81% 29.61 in 2.5 mi NNW 25.3 mph 35.7 mph 0.00 in Snow Light Snow
2:56 AM 35.1 °F 22.2 °F 32.0 °F 89% 29.63 in 2.5 mi NW 27.6 mph 33.4 mph 0.00 in Snow Light Snow
3:56 AM 34.0 °F 22.1 °F 32.0 °F 92% 29.60 in 2.5 mi NW 21.9 mph 32.2 mph 0.01 in Snow Light Snow
4:20 AM 33.8 °F 21.0 °F 32.0 °F 93% 29.57 in 2.5 mi NW 25.3 mph 36.8 mph 0.01 in Snow Light Snow
4:56 AM 34.0 °F 21.5 °F 32.0 °F 92% 29.57 in 2.5 mi NW 24.2 mph 39.1 mph 0.01 in Snow Light Snow
5:35 AM 33.8 °F 21.6 °F 33.8 °F 100% 29.54 in 3.0 mi NW 23.0 mph 40.3 mph 0.00 in Snow Light Snow
5:56 AM 33.8 °F 21.6 °F 33.8 °F 100% 29.53 in 3.0 mi NW 23.0 mph 34.5 mph N/A Snow Light Snow
6:56 AM 35.1 °F 23.5 °F 32.0 °F 89% 29.55 in 8.0 mi NW 21.9 mph 29.9 mph 0.00 in Snow Light Snow
7:31 AM 33.8 °F 21.9 °F 32.0 °F 93% 29.53 in 2.0 mi NW 21.9 mph 31.1 mph 0.00 in Snow Light Snow
7:56 AM 34.0 °F 21.5 °F 32.0 °F 92% 29.54 in 2.0 mi NW 24.2 mph 32.2 mph 0.01 in Snow Light Snow
8:15 AM 33.8 °F 21.3 °F 32.0 °F 93% 29.51 in 2.5 mi NW 24.2 mph 35.7 mph 0.00 in Snow Light Snow
8:24 AM 33.8 °F 21.3 °F 32.0 °F 93% 29.51 in 4.0 mi NW 24.2 mph 32.2 mph 0.00 in Snow Light Snow
8:31 AM 33.8 °F 21.3 °F 32.0 °F 93% 29.51 in 3.0 mi NW 24.2 mph 35.7 mph 0.00 in Snow Light Snow
8:38 AM 33.8 °F 21.0 °F 32.0 °F 93% 29.51 in 2.0 mi NW 25.3 mph 35.7 mph 0.00 in Snow Light Snow
8:46 AM 33.8 °F 20.8 °F 33.8 °F 100% 29.50 in 3.0 mi NW 26.5 mph 33.4 mph 0.00 in Snow Light Snow
8:56 AM 34.0 °F 21.5 °F 32.0 °F 92% 29.52 in 2.0 mi NW 24.2 mph 34.5 mph 0.00 in Snow Light Snow
9:47 AM 33.8 °F 21.9 °F 33.8 °F 100% 29.50 in 1.2 mi NW 21.9 mph 29.9 mph 0.01 in Snow Light Snow
9:56 AM 35.1 °F 24.1 °F 33.1 °F 92% 29.52 in 1.8 mi NW 19.6 mph 31.1 mph 0.01 in Snow Light Snow
10:48 AM 35.6 °F 23.2 °F 33.8 °F 93% 29.49 in 2.0 mi NW 26.5 mph 34.5 mph 0.02 in Snow Light Snow
10:56 AM 36.0 °F 24.7 °F 34.0 °F 93% 29.51 in 6.0 mi NW 21.9 mph 32.2 mph 0.03 in Snow Light Snow
11:56 AM 37.9 °F 27.6 °F 35.1 °F 89% 29.52 in 10.0 mi NW 20.7 mph 35.7 mph 0.01 in Rain Light Rain
12:56 PM 37.9 °F 27.3 °F 36.0 °F 93% 29.52 in 6.0 mi NW 21.9 mph 36.8 mph 0.00 in Rain Light Rain
1:45 PM 39.2 °F 29.0 °F 37.4 °F 93% 29.50 in 2.5 mi NW 21.9 mph 34.5 mph 0.00 in Rain Light Rain
1:56 PM 39.0 °F 29.6 °F 37.0 °F 93% 29.52 in 2.5 mi NW 18.4 mph 28.8 mph 0.00 in Rain Light Rain
2:09 PM 39.2 °F 29.0 °F 37.4 °F 93% 29.50 in 5.0 mi NW 21.9 mph 28.8 mph 0.00 in Rain Light Rain
2:56 PM 39.0 °F 29.6 °F 37.0 °F 93% 29.53 in 3.0 mi NW 18.4 mph - 0.00 in Rain Light Rain
3:16 PM 39.2 °F 28.3 °F 37.4 °F 93% 29.51 in 3.0 mi NW 25.3 mph 32.2 mph 0.01 in Rain Light Rain
3:29 PM 39.2 °F 28.7 °F 37.4 °F 93% 29.51 in 4.0 mi NW 23.0 mph 28.8 mph 0.01 in Rain Light Rain
3:56 PM 39.0 °F 28.8 °F 37.0 °F 93% 29.54 in 4.0 mi NW 21.9 mph 28.8 mph 0.02 in Rain Light Rain
4:43 PM 39.2 °F 29.0 °F 37.4 °F 93% 29.53 in 2.0 mi NW 21.9 mph - 0.00 in Rain Light Rain
4:56 PM 39.0 °F 29.0 °F 37.9 °F 96% 29.56 in 2.5 mi NW 20.7 mph 27.6 mph 0.00 in Rain Light Rain
5:03 PM 39.2 °F 30.2 °F 37.4 °F 93% 29.54 in 3.0 mi NW 17.3 mph 32.2 mph 0.01 in Rain Light Rain
5:56 PM 39.0 °F 29.3 °F 37.0 °F 93% 29.58 in 4.0 mi NW 19.6 mph 26.5 mph 0.01 in   Overcast
6:39 PM 39.2 °F 29.6 °F 37.4 °F 93% 29.57 in 4.0 mi NW 19.6 mph 25.3 mph N/A   Overcast
6:56 PM 39.0 °F 29.6 °F 37.0 °F 93% 29.60 in 4.0 mi NW 18.4 mph - 0.00 in Rain Light Rain
7:56 PM 39.0 °F 30.6 °F 37.9 °F 96% 29.62 in 5.0 mi NW 15.0 mph - 0.01 in   Overcast
8:56 PM 39.0 °F 29.6 °F 37.9 °F 96% 29.63 in 5.0 mi NW 18.4 mph 24.2 mph 0.00 in   Overcast
9:56 PM 39.0 °F 30.3 °F 37.0 °F 93% 29.64 in 5.0 mi NW 16.1 mph - N/A   Overcast
10:38 PM 39.2 °F 30.5 °F 37.4 °F 93% 29.61 in 10.0 mi NW 16.1 mph - N/A   Overcast
10:56 PM 39.0 °F 30.6 °F 37.0 °F 93% 29.63 in 10.0 mi NW 15.0 mph - N/A   Overcast
11:56 PM 39.2 °F 30.8 °F 37.4 °F 93% 29.61 in 8.0 mi WNW 15.0 mph - N/A   Overcast